Flag for U.S.A. Weather past 2 weeks in Sunrise Manor, Nevada, U.S.A.

Now
74 °F

Clear.


Feels Like: 77 °F
Forecast: 65 / 89 °F
Wind: 9 mph from Northeast

Location: Nellis Air Force Base

Current Time: May 26, 2015 at 5:16:02 AM

Latest Report: May 26, 2015 at 4:58 AM


Visibility: 10 mi

Pressure: 29.82 "Hg

Humidity: 30%

Dew point: 41 °F

Location of Sunrise ManorLocation

Historic Weather in Sunrise Manor — Graph

°F

Sunrise Manor temperature yesterday

Maximum temperature yesterday: 85 °F (at 5:58 PM)
Minimum temperature yesterday: 60 °F (at 4:58 AM)
Average temperature yesterday: 73 °F

Past Weeks' High & Low Weather Summary

 TemperatureHumidityPressure
High88 °F (May 11, 4:01 PM)85% (May 25, 4:58 AM)30.00 "Hg (May 25, 4:58 AM)
Low53 °F (May 16, 5:58 AM)7% (May 13, 3:58 PM)29.58 "Hg (May 12, 5:58 PM)
Average71 °F32%29.78 "Hg
* Reported May 11 3:58 AM — May 26 3:58 AM, Sunrise Manor, Weather by CustomWeather, © 2015

Note: Actual official high and low records may vary slightly from our data, if they occured in-between our weather recording intervals... More about our weather records

Advertising

Sunrise Manor weather history for previous 24 hours

 ConditionsComfort  
Time TempWeatherWind HumidityBarometerVisibility
3:58 AM
Tue, May 26
75 °FClear.15 mph29%29.79 "Hg10 mi
2:58 AM76 °FClear.10 mph29%29.78 "Hg10 mi
1:58 AM77 °FClear.14 mph29%29.78 "Hg10 mi
12:58 AM75 °FClear.10 mph30%29.78 "Hg10 mi
11:58 PM
Mon, May 25
77 °FClear.8 mph33%29.77 "Hg10 mi
10:58 PM81 °FClear.13 mph26%29.75 "Hg10 mi
9:58 PM82 °FClear.10 mph27%29.75 "Hg10 mi
8:58 PM82 °FClear.7 mph28%29.74 "Hg10 mi
7:58 PM83 °FSunny.5 mph28%29.74 "Hg10 mi
6:58 PM85 °FSunny.6 mph28%29.72 "Hg10 mi
5:58 PM85 °FSunny.12 mph27%29.74 "Hg10 mi
4:58 PM84 °FSunny.3 mph27%29.76 "Hg10 mi
3:58 PM83 °FPassing clouds.6 mph29%29.78 "Hg10 mi
1:58 PM81 °FPassing clouds.5 mph34%29.84 "Hg10 mi
12:58 PM78 °FSunny.6 mph39%29.86 "Hg10 mi
11:58 AM76 °FSunny.5 mph44%29.87 "Hg10 mi
10:58 AM73 °FSunny.No wind48%29.89 "Hg10 mi
9:58 AM70 °FSunny.5 mph55%29.90 "Hg10 mi
8:58 AM68 °FSunny.8 mph64%29.90 "Hg10 mi
7:58 AM65 °FSunny.9 mph73%29.89 "Hg10 mi
6:58 AM62 °FSunny.10 mph77%29.87 "Hg10 mi
5:58 AM60 °FClear.7 mph85%29.86 "Hg10 mi
Weather by CustomWeather, © 2015

See weather overviewHow to use our weather pages